Temperature
19 19 19 18 18 18 17 17 17 17 17 17 16 16 16 16 16 16 16 16 16 16 16 16 16 16 16 16 16 16 16 16 16 15 15 15 15 15 15 15 15 15 15
19 19 19 18 18 18 17 17 17 16 16 16 16 16 16 16 16 16 16 16 16 16 16 16 16 16 16 16 16 16 16 16 16 15 15 15 15 15 15 15 15 15 15
19 19 18 18 18 17 17 17 16 16 16 16 16 16 16 16 16 16 15 16 16 16 16 16 16 15 16 15 15 15 15 15 15 15 15 15 15 15 15 15 15 15 15
19 19 18 18 17 17 17 17 16 16 16 16 16 16 16 15 15 15 15 15 15 15 15 15 15 15 15 15 15 15 15 15 15 14 14 14 14 14 14 14 14 14 14
19 18 18 18 17 17 17 17 16 16 16 16 15 15 15 15 15 15 15 15 15 15 15 15 15 15 15 14 14 14 14 14 14 14 14 14 14 14 14 14 14 14 14
19 18 18 17 17 17 17 16 16 16 16 15 15 15 15 15 15 15 15 15 15 15 14 14 14 14 14 14 14 14 14 14 13 13 13 13 13 13 13 13 13 13 13
18 18 17 17 17 17 16 16 16 16 15 15 15 15 15 15 15 15 15 14 14 14 14 14 14 14 14 13 13 13 13 13 13 13 13 13 13 13 13 13 13 13 13
18 17 17 17 16 16 16 16 16 15 15 15 15 15 14 14 14 14 14 14 14 14 14 14 13 13 13 13 13 13 13 13 12 12 12 12 12 12 12 12 12 12 13
18 17 17 16 16 16 16 16 15 15 15 15 14 14 14 14 14 14 14 14 14 13 13 13 13 13 13 13 13 13 13 12 12 12 12 12 12 12 12 12 12 12 12
17 17 16 16 16 16 16 15 15 15 14 14 14 14 14 14 14 13 13 13 13 13 13 13 13 12 12 12 12 12 12 12 12 12 12 12 12 12 12 12 12 12 12
17 16 16 16 16 15 15 15 15 14 14 14 14 13 13 13 13 13 13 13 13 13 12 12 12 12 12 12 12 12 12 11 11 11 11 11 11 11 11 11 11 11 11
16 16 15 15 15 15 15 14 14 14 14 13 13 13 13 13 13 13 12 12 12 12 12 12 12 12 12 11 11 11 11 11 11 11 11 11 11 11 11 11 11 11 11
15 15 15 15 14 14 14 14 14 14 13 13 13 13 13 12 12 12 12 12 12 12 12 11 11 11 11 11 11 11 11 11 11 11 11 11 11 11 11 11 11 11 11
15 15 14 14 14 14 14 14 13 13 13 13 13 12 12 12 12 12 12 11 11 11 11 11 11 11 11 11 11 10 10 10 10 10 11 11 11 11 11 11 11 11 11
14 14 14 14 14 14 13 13 13 13 13 13 13 12 12 12 12 11 11 11 11 11 11 11 11 11 11 10 10 10 10 10 10 10 10 10 10 10 10 10 10 10 10
14 13 13 13 13 13 13 13 13 13 12 12 12 12 12 12 11 11 11 11 11 11 10 10 10 10 10 10 10 10 10 10 10 10 10 10 10 10 10 10 10 10 10
13 13 13 13 13 13 13 12 12 12 12 12 12 12 11 11 11 11 11 10 10 10 10 10 10 10 10 9 9 9 9 9 9 9 9 9 9 9 9 9 9 9 9
13 13 13 12 13 12 12 12 12 12 12 12 11 11 11 11 11 11 11 10 10 10 10 10 9 9 9 9 9 9 9 9 9 9 9 9 9 9 9 9 9 9 9
12 12 12 12 12 12 12 12 12 12 11 11 11 11 11 10 10 10 10 10 10 10 9 9 9 9 9 9 9 8 8 8 8 8 8 8 8 8 8 8 8 8 8
12 12 12 12 12 12 12 12 12 11 11 11 11 11 10 10 10 10 10 9 9 9 9 9 9 9 8 8 8 8 8 8 8 8 8 8 8 8 8 8 8 8 8
12 12 12 12 12 12 11 11 11 11 11 11 11 10 10 10 10 9 9 9 9 9 9 8 8 8 8 8 8 8 8 8 7 7 7 7 7 7 7 7 7 7 7
12 12 12 11 11 11 11 11 11 11 11 11 10 10 10 9 9 9 9 9 8 8 8 8 8 8 8 8 7 7 7 7 7 7 7 7 7 7 7 7 7 7 7
12 11 11 11 11 11 11 11 11 11 11 10 10 10 9 9 9 9 9 8 8 8 8 8 8 7 7 7 7 7 7 7 7 7 7 7 7 7 7 7 7 7 7
11 11 11 11 11 11 11 11 11 10 10 10 10 9 9 9 9 9 8 8 8 8 8 8 7 7 7 7 7 7 7 7 7 7 7 7 6 7 7 7 7 7 7
11 11 11 11 11 11 11 10 10 10 10 9 9 9 9 9 8 8 8 8 8 8 7 7 7 7 7 6 6 6 6 6 6 6 6 6 6 6 6 6 6 6 6
11 11 11 11 11 10 10 10 10 9 9 9 9 9 8 8 8 8 8 8 7 7 7 7 7 7 6 6 6 6 6 6 6 6 6 6 6 6 6 6 6 6 6
Wind_Speed
6 5 4 4 3 4 3 3 3 2 2 2 2 2 2 1 1 1 1 1 2 2 2 2 1 1 2 1 1 1 1 2 2 1 1 1 1 0 0 1 2 3 4
6 5 4 4 4 4 3 2 3 3 2 2 2 2 2 1 1 1 1 1 1 1 1 2 2 2 2 1 1 1 1 1 2 2 1 1 1 1 1 1 1 2 3
6 5 4 4 4 4 3 3 3 3 2 2 3 2 1 1 1 0 0 0 0 0 1 1 1 2 2 1 2 2 1 2 2 2 1 1 1 1 1 1 1 1 2
6 5 4 3 3 3 3 3 3 3 3 3 2 2 1 1 1 1 1 0 0 0 0 0 1 1 1 1 1 1 2 2 2 1 0 1 1 2 0 1 1 1 2
6 5 4 4 3 3 3 2 2 3 3 3 3 1 1 1 1 1 1 0 1 0 1 1 0 1 2 2 2 2 2 2 1 1 0 1 1 1 1 1 1 2 2
6 4 3 4 3 3 3 2 2 2 2 3 2 2 1 1 1 2 2 1 1 1 1 1 1 1 1 1 1 2 3 3 2 2 1 2 3 2 2 1 1 0 2
5 4 3 3 4 3 3 3 3 2 2 2 1 1 1 0 2 1 2 1 1 1 1 0 1 1 1 1 1 2 0 1 3 4 3 3 3 3 2 2 2 2 4
4 4 3 3 3 2 2 2 2 2 3 2 2 1 0 1 2 2 2 2 1 0 1 1 1 0 1 1 1 1 2 2 2 2 4 5 4 4 4 4 3 2 3
4 3 3 4 3 3 2 2 2 2 2 2 2 2 1 1 2 1 2 1 1 1 1 0 1 1 1 2 2 1 2 4 3 2 3 4 4 4 2 1 0 0 2
3 4 3 3 3 3 3 2 2 2 2 2 1 1 1 1 1 1 3 2 1 0 1 1 0 0 1 1 1 0 2 3 3 3 4 4 3 3 2 2 3 2 2
1 2 1 2 3 3 2 1 1 0 1 1 1 1 1 2 1 0 2 2 2 1 0 1 2 2 2 1 1 2 4 3 2 2 3 3 3 3 3 2 3 4 3
2 2 1 1 2 2 2 1 1 1 0 1 0 1 1 2 1 0 1 1 2 2 1 2 2 3 4 4 2 2 2 1 0 1 1 2 3 3 3 3 3 4 5
3 2 2 3 2 2 2 2 1 1 1 0 0 0 1 2 2 1 1 1 1 1 1 2 3 3 4 3 2 2 2 0 0 1 2 3 3 4 3 2 2 2 3
3 3 2 2 2 1 2 1 1 1 2 1 1 1 1 1 1 1 1 1 2 2 2 3 4 4 2 2 2 2 1 1 1 2 3 3 3 2 2 2 1 2 2
3 2 2 1 1 1 1 0 1 2 3 3 3 3 3 2 3 2 2 0 0 0 1 2 2 2 3 3 2 2 2 2 2 2 2 3 3 2 3 2 1 1 2
2 1 1 1 1 1 1 1 3 2 1 0 2 3 2 3 2 1 1 1 1 1 2 0 1 1 1 1 2 2 2 2 2 2 2 2 2 3 3 2 1 2 3
3 2 1 1 1 1 1 1 1 4 5 3 1 1 2 1 1 1 2 1 0 2 1 1 2 2 2 2 2 2 2 3 2 2 2 2 2 2 2 2 2 2 3
2 1 2 2 2 2 2 2 2 1 1 3 3 2 1 1 1 1 0 2 1 0 2 2 2 2 2 2 2 2 2 2 2 2 2 2 2 2 3 3 3 3 3
1 1 1 1 1 1 1 1 2 2 2 2 2 3 3 2 3 2 2 1 2 2 2 2 3 2 2 2 2 2 2 2 2 1 2 2 2 2 3 3 3 5 4
1 2 1 1 1 1 1 1 2 2 2 2 2 2 1 1 1 1 1 1 2 2 2 3 2 2 2 2 2 2 2 2 2 2 2 3 3 2 3 4 4 4 4
1 2 2 1 1 1 1 2 2 2 2 2 3 3 3 2 2 2 2 2 2 3 3 2 2 2 2 2 2 2 2 2 2 2 3 3 3 3 3 4 4 4 4
1 1 2 2 2 2 2 2 2 2 2 2 2 2 2 1 2 2 2 2 3 3 2 2 2 2 2 2 2 2 2 3 3 3 3 4 4 4 4 4 4 4 4
2 2 2 2 2 2 2 1 2 2 2 2 2 2 2 2 2 2 2 3 2 2 2 1 2 2 2 2 2 2 3 3 4 4 4 4 4 4 4 4 5 4 4
2 2 2 2 2 2 2 2 2 2 2 2 2 2 3 3 3 3 3 2 2 1 1 1 1 2 3 2 2 3 3 4 4 4 5 4 5 5 4 4 5 5 5
2 2 3 3 2 2 2 2 2 2 2 2 2 2 2 2 2 2 2 2 1 1 1 1 2 2 3 3 3 4 5 6 5 4 4 3 4 5 5 5 5 5 5
2 3 3 2 2 2 2 2 2 2 1 1 1 2 2 2 2 2 2 1 1 2 2 1 2 3 3 3 4 5 5 5 6 5 3 3 4 4 5 5 6 5 6
Wind_Direction
154 149 143 145 142 134 137 146 151 141 132 138 132 114 102 88 79 74 46 45 53 24 23 58 28 33 44 24 65 87 95 130 163 271 280 314 49 21 6 186 190 194 206
159 149 150 149 144 145 153 159 152 149 157 151 127 109 109 98 78 80 50 33 63 45 13 39 8 29 44 38 63 64 72 111 148 160 319 347 324 260 249 248 205 208 211
148 147 150 154 156 165 171 164 154 147 146 137 125 128 129 124 102 91 138 28 48 97 61 69 25 63 51 52 67 72 70 67 95 139 236 288 294 313 341 323 299 281 227
142 147 154 167 172 180 174 158 150 149 147 144 141 147 155 146 116 80 100 54 4 8 72 134 120 125 141 123 96 92 93 74 74 99 211 293 293 303 359 318 317 309 273
144 155 174 177 162 153 155 154 146 150 157 152 143 156 179 162 162 139 137 111 93 61 14 341 171 130 118 129 133 144 127 118 112 110 236 309 301 313 279 258 253 279 278
149 163 171 164 157 157 160 151 141 142 142 140 148 168 189 205 77 103 128 150 148 135 322 327 351 25 34 58 87 142 157 163 179 191 230 230 252 250 260 261 238 276 284
148 158 166 171 172 181 173 153 163 162 145 146 158 145 168 353 52 58 88 117 152 183 210 281 330 10 35 45 40 39 7 215 199 189 202 229 233 234 235 267 241 225 238
154 166 171 169 175 172 157 170 185 170 164 173 173 170 144 344 30 50 75 76 94 305 218 187 174 326 44 92 65 7 324 304 272 217 210 229 237 232 216 220 231 256 273
164 176 182 177 175 168 171 196 186 171 180 190 182 174 178 299 348 41 85 101 79 14 355 139 154 153 33 76 89 28 327 313 301 298 263 253 257 259 233 199 256 120 291
188 189 182 175 172 186 200 198 178 168 189 185 175 180 193 269 309 75 103 122 108 18 354 357 10 35 22 81 121 170 289 290 310 320 319 316 304 298 290 206 200 206 234
184 165 169 172 180 182 172 140 133 132 202 190 185 221 237 242 260 148 125 129 152 156 269 304 300 339 341 321 244 225 246 259 280 285 290 302 312 314 302 273 216 201 211
101 94 95 118 142 124 121 108 112 136 178 239 128 343 314 305 314 319 123 129 136 157 236 263 276 316 324 321 303 288 297 328 309 305 298 292 289 283 279 271 258 242 230
94 95 109 97 81 106 130 141 143 145 141 182 171 251 308 323 333 354 70 91 85 134 253 283 308 321 327 322 323 339 356 7 7 297 277 269 263 264 275 295 303 291 289
106 103 106 111 95 70 79 115 154 180 178 182 184 219 270 310 322 341 357 2 8 6 344 346 356 359 359 349 343 343 341 265 235 240 256 270 280 284 278 273 274 290 304
123 117 111 118 130 95 66 100 188 226 207 202 208 199 199 248 262 224 175 179 226 327 25 12 10 8 4 355 343 334 333 332 299 281 279 288 288 286 279 275 253 251 251
127 132 156 167 174 145 124 24 14 2 348 185 187 187 212 224 234 240 239 199 150 119 105 50 310 311 305 308 317 321 313 302 297 301 301 291 288 289 291 291 273 257 258
153 171 187 188 185 177 173 159 19 360 6 18 318 188 186 212 250 274 296 286 159 137 129 248 259 263 264 273 284 288 289 293 310 330 323 310 304 297 292 294 289 280 272
161 177 175 191 193 188 192 198 188 197 293 319 316 292 260 242 254 304 78 102 26 194 230 238 242 247 247 255 265 276 287 306 318 321 323 324 318 305 298 297 293 280 269
173 205 210 211 209 205 199 196 198 201 228 271 310 319 313 329 350 9 105 145 229 253 251 249 245 242 245 246 253 258 263 270 279 285 292 299 303 307 302 296 291 290 277
206 224 211 203 222 222 202 208 212 211 220 243 253 257 286 41 356 323 272 246 249 261 261 259 257 250 244 245 249 251 257 263 271 279 283 284 286 284 286 290 290 286 276
239 248 244 213 211 225 222 216 214 212 219 234 244 235 197 198 229 246 254 253 250 257 264 268 266 256 248 242 242 240 242 251 254 269 275 275 278 279 280 278 277 277 279
229 244 226 217 223 230 221 217 216 214 218 228 242 238 218 212 236 248 255 263 265 264 256 250 262 265 257 245 239 244 251 259 265 273 274 271 272 275 277 276 275 276 280
224 233 237 229 217 221 226 226 224 222 225 232 226 218 223 234 244 246 253 263 266 267 269 257 266 284 289 261 234 234 244 257 258 257 263 269 273 274 272 274 274 272 271
232 235 236 238 234 220 220 234 238 232 225 225 229 225 226 233 243 249 251 259 257 261 259 241 253 272 286 281 266 261 262 270 266 253 258 262 267 272 269 270 270 267 267
238 240 232 220 218 222 225 231 236 236 232 225 228 235 240 238 241 249 256 260 253 248 261 265 266 264 266 279 283 284 292 294 284 273 260 262 269 271 271 270 267 268 265
235 234 234 225 219 216 212 214 224 226 221 223 223 220 230 238 242 245 245 253 263 266 269 278 279 272 275 278 290 300 301 298 292 288 275 270 277 280 279 274 273 269 270
Height
1510 1511 1512 1512 1513 1513 1513 1513 1513 1512 1511 1511 1510 1510 1509 1509 1508 1508 1507 1507 1506 1506 1506 1506 1506 1506 1506 1506 1506 1506 1506 1506 1506 1506 1507 1508 1508 1508 1507 1507 1507 1506 1506
1509 1510 1511 1512 1512 1512 1512 1512 1512 1511 1511 1510 1509 1509 1508 1508 1507 1507 1506 1505 1505 1505 1505 1505 1505 1505 1504 1504 1504 1504 1504 1504 1504 1504 1505 1505 1506 1506 1506 1505 1505 1505 1505
1508 1509 1510 1510 1511 1511 1511 1511 1511 1510 1510 1509 1508 1508 1507 1507 1506 1505 1505 1504 1504 1503 1503 1503 1503 1503 1502 1502 1502 1502 1502 1502 1502 1502 1502 1503 1503 1503 1503 1503 1503 1503 1503
1507 1508 1509 1509 1509 1509 1509 1509 1509 1509 1509 1508 1508 1507 1506 1505 1505 1504 1504 1503 1502 1502 1502 1501 1501 1501 1501 1500 1500 1500 1500 1500 1500 1500 1500 1501 1501 1501 1501 1500 1500 1500 1500
1506 1506 1507 1507 1508 1508 1508 1508 1508 1508 1507 1507 1506 1505 1505 1504 1503 1503 1502 1502 1501 1501 1500 1500 1499 1499 1499 1499 1499 1498 1498 1498 1498 1498 1498 1498 1498 1498 1498 1498 1498 1498 1498
1504 1505 1506 1506 1506 1506 1506 1506 1507 1506 1506 1505 1505 1504 1503 1502 1502 1501 1500 1500 1499 1499 1498 1498 1497 1497 1497 1497 1496 1496 1496 1496 1496 1496 1496 1495 1495 1496 1496 1496 1496 1495 1495
1502 1503 1504 1505 1505 1505 1505 1505 1505 1504 1504 1504 1503 1503 1502 1501 1500 1500 1499 1498 1497 1497 1496 1496 1495 1495 1495 1495 1494 1494 1494 1494 1494 1494 1493 1493 1493 1493 1493 1493 1493 1493 1492
1501 1502 1502 1503 1503 1503 1503 1503 1503 1503 1502 1502 1502 1501 1501 1500 1499 1498 1497 1496 1495 1495 1494 1494 1493 1493 1492 1492 1491 1491 1491 1491 1491 1491 1491 1491 1491 1491 1491 1491 1490 1490 1490
1499 1500 1500 1501 1501 1501 1501 1501 1501 1500 1500 1500 1499 1499 1499 1498 1497 1496 1495 1494 1493 1493 1492 1492 1491 1490 1490 1489 1488 1488 1488 1488 1488 1488 1488 1488 1488 1488 1488 1488 1487 1487 1486
1497 1498 1498 1499 1500 1499 1499 1499 1499 1499 1498 1498 1497 1497 1496 1496 1495 1494 1493 1492 1491 1490 1490 1489 1489 1488 1487 1486 1486 1485 1485 1485 1485 1486 1486 1485 1485 1485 1485 1485 1484 1484 1483
1496 1496 1497 1498 1498 1498 1498 1498 1497 1497 1496 1495 1495 1495 1494 1493 1492 1492 1491 1490 1489 1488 1487 1487 1486 1486 1485 1484 1483 1483 1482 1482 1482 1483 1483 1482 1482 1482 1482 1482 1481 1481 1480
1495 1495 1495 1496 1497 1496 1496 1496 1496 1495 1494 1492 1492 1493 1492 1491 1491 1490 1489 1488 1487 1486 1485 1484 1484 1483 1483 1482 1481 1480 1480 1480 1480 1480 1480 1479 1479 1478 1478 1478 1478 1478 1477
1493 1494 1493 1494 1494 1494 1493 1493 1493 1492 1492 1491 1490 1490 1490 1489 1488 1488 1487 1486 1485 1484 1483 1482 1482 1481 1480 1479 1479 1478 1478 1477 1477 1477 1477 1476 1476 1476 1475 1475 1474 1474 1473
1492 1492 1492 1492 1492 1492 1492 1492 1492 1491 1490 1489 1488 1488 1488 1487 1487 1486 1485 1484 1483 1482 1481 1481 1480 1479 1478 1477 1476 1476 1475 1475 1474 1474 1473 1473 1473 1473 1472 1471 1470 1470 1469
1491 1491 1491 1491 1491 1491 1491 1490 1490 1489 1489 1488 1487 1486 1485 1485 1485 1485 1483 1482 1481 1480 1479 1479 1478 1477 1476 1475 1474 1474 1473 1472 1472 1471 1470 1470 1469 1469 1468 1468 1467 1466 1465
1489 1489 1489 1489 1489 1489 1489 1489 1488 1488 1487 1486 1486 1485 1483 1484 1483 1482 1481 1481 1480 1479 1478 1477 1476 1475 1474 1473 1473 1472 1471 1470 1469 1469 1468 1467 1466 1465 1464 1464 1463 1462 1462
1488 1488 1488 1487 1487 1487 1487 1487 1486 1486 1485 1484 1484 1483 1483 1482 1481 1480 1479 1478 1478 1477 1476 1475 1474 1474 1473 1472 1471 1470 1469 1468 1467 1466 1465 1464 1463 1462 1461 1460 1459 1458 1458
1487 1486 1486 1486 1486 1485 1485 1485 1484 1484 1483 1482 1482 1482 1481 1480 1479 1478 1477 1476 1475 1474 1474 1473 1472 1471 1470 1469 1468 1467 1466 1465 1464 1463 1462 1461 1459 1458 1457 1456 1455 1454 1454
1485 1485 1485 1485 1484 1484 1483 1483 1483 1482 1482 1481 1480 1480 1479 1478 1477 1476 1475 1474 1473 1472 1471 1470 1469 1468 1467 1466 1465 1464 1463 1462 1460 1459 1458 1457 1456 1455 1454 1453 1452 1451 1450
1484 1483 1483 1483 1482 1482 1481 1481 1481 1480 1480 1479 1478 1477 1476 1475 1474 1473 1473 1472 1471 1469 1468 1467 1466 1465 1464 1463 1462 1461 1459 1458 1457 1456 1455 1453 1452 1451 1450 1449 1448 1447 1446
1482 1481 1481 1481 1480 1480 1479 1479 1479 1478 1477 1476 1476 1475 1474 1473 1472 1471 1470 1469 1468 1467 1465 1464 1463 1462 1460 1459 1458 1457 1456 1454 1453 1452 1451 1450 1449 1448 1446 1445 1444 1443 1442
1480 1479 1479 1478 1478 1477 1477 1477 1476 1476 1475 1474 1473 1472 1472 1471 1469 1468 1467 1466 1465 1464 1463 1461 1460 1459 1457 1456 1454 1453 1452 1451 1450 1449 1447 1446 1445 1444 1442 1441 1440 1439 1438
1478 1477 1476 1475 1475 1475 1474 1474 1474 1473 1472 1471 1470 1469 1468 1467 1466 1465 1464 1463 1462 1461 1460 1458 1457 1455 1454 1452 1451 1450 1448 1447 1446 1445 1443 1442 1441 1440 1438 1437 1436 1435 1434
1475 1475 1474 1473 1473 1472 1471 1471 1470 1470 1469 1468 1467 1466 1465 1464 1463 1462 1461 1460 1459 1457 1456 1454 1453 1452 1450 1448 1447 1446 1445 1443 1442 1441 1439 1438 1437 1435 1434 1433 1432 1431 1430
1473 1472 1472 1471 1470 1469 1468 1468 1467 1466 1465 1465 1463 1463 1462 1460 1459 1458 1457 1456 1454 1453 1452 1450 1449 1447 1446 1445 1443 1441 1440 1439 1437 1436 1435 1434 1432 1431 1430 1429 1428 1427 1426
1470 1470 1469 1468 1467 1466 1465 1464 1463 1463 1462 1461 1460 1459 1458 1457 1456 1454 1453 1451 1450 1449 1447 1446 1445 1443 1442 1441 1439 1437 1436 1434 1433 1431 1430 1429 1428 1427 1426 1425 1424 1423 1423